TimeCST,TemperatureF,Dew PointF,Humidity,Sea Level PressureIn,VisibilityMPH,Wind Direction,Wind SpeedMPH,Gust SpeedMPH,PrecipitationIn,Events,Conditions,WindDirDegrees,DateUTC
12:05 AM,-4.0,-13.0,65,30.58,10.0,NNE,9.2,-,N/A,,Clear,20,2013-01-24 06:05:00
12:25 AM,-4.0,-11.2,71,30.59,10.0,NNE,6.9,-,N/A,,Clear,20,2013-01-24 06:25:00
12:45 AM,-4.0,-11.2,71,30.58,10.0,NNE,9.2,-,N/A,,Clear,20,2013-01-24 06:45:00
1:05 AM,-4.0,-11.2,71,30.58,10.0,NE,10.4,-,N/A,,Clear,40,2013-01-24 07:05:00
1:25 AM,-4.0,-13.0,65,30.58,10.0,NE,8.1,-,N/A,,Clear,40,2013-01-24 07:25:00
1:50 AM,-5.8,-13.0,71,30.59,10.0,NE,9.2,-,N/A,,Clear,50,2013-01-24 07:50:00
2:09 AM,-4.9,-13.2,68,30.60,10.0,NE,8.1,-,N/A,,Clear,50,2013-01-24 08:09:00
2:28 AM,-4.9,-13.2,68,30.60,10.0,NE,8.1,-,N/A,,Clear,40,2013-01-24 08:28:00
2:48 AM,-4.5,-13.0,67,30.61,10.0,NE,6.9,-,N/A,,Clear,50,2013-01-24 08:48:00
3:09 AM,-4.5,-13.0,67,30.62,10.0,ENE,8.1,-,N/A,,Clear,60,2013-01-24 09:09:00
3:28 AM,-3.8,-12.8,65,30.61,10.0,ENE,6.9,-,N/A,,Clear,70,2013-01-24 09:28:00
3:49 AM,-4.9,-13.9,65,30.61,10.0,ENE,6.9,-,N/A,,Clear,60,2013-01-24 09:49:00
4:08 AM,-4.5,-13.4,66,30.61,10.0,ENE,5.8,-,N/A,,Clear,70,2013-01-24 10:08:00
4:28 AM,-4.7,-13.4,66,30.58,10.0,ENE,6.9,-,N/A,,Clear,70,2013-01-24 10:28:00
4:48 AM,-3.5,-12.3,66,30.58,10.0,ENE,6.9,-,N/A,,Clear,70,2013-01-24 10:48:00
5:09 AM,-3.6,-12.1,67,30.59,10.0,East,5.8,-,N/A,,Scattered Clouds,80,2013-01-24 11:09:00
5:28 AM,-3.5,-12.3,66,30.59,10.0,East,6.9,-,N/A,,Scattered Clouds,90,2013-01-24 11:28:00
5:48 AM,-3.5,-12.3,66,30.61,10.0,East,4.6,-,N/A,,Clear,90,2013-01-24 11:48:00
6:08 AM,-3.5,-12.1,67,30.61,10.0,East,4.6,-,N/A,,Clear,80,2013-01-24 12:08:00
6:28 AM,-3.5,-12.1,67,30.61,10.0,East,5.8,-,N/A,,Mostly Cloudy,90,2013-01-24 12:28:00
6:48 AM,-3.5,-12.1,67,30.61,10.0,East,5.8,-,N/A,,Overcast,80,2013-01-24 12:48:00
7:08 AM,-3.5,-11.7,68,30.61,10.0,East,6.9,-,N/A,,Overcast,90,2013-01-24 13:08:00
7:27 AM,-3.5,-11.4,69,30.60,10.0,East,5.8,-,N/A,,Overcast,100,2013-01-24 13:27:00
7:48 AM,-3.5,-11.4,69,30.60,10.0,ESE,5.8,-,N/A,,Overcast,120,2013-01-24 13:48:00
8:08 AM,-3.1,-10.3,71,30.58,10.0,ESE,6.9,-,N/A,,Overcast,110,2013-01-24 14:08:00
8:28 AM,-2.9,-10.3,71,30.57,10.0,ESE,6.9,-,N/A,,Mostly Cloudy,110,2013-01-24 14:28:00
8:48 AM,-1.3,-8.5,72,30.57,10.0,ESE,6.9,-,N/A,,Scattered Clouds,120,2013-01-24 14:48:00
9:08 AM,-0.9,-8.5,70,30.57,10.0,ESE,8.1,-,N/A,,Clear,120,2013-01-24 15:08:00
9:28 AM,-0.9,-8.7,70,30.56,10.0,ESE,9.2,-,N/A,,Scattered Clouds,120,2013-01-24 15:28:00
9:35 AM,-0.9,-8.7,70,30.56,10.0,SE,8.1,-,N/A,,Scattered Clouds,130,2013-01-24 15:35:00
10:06 AM,-0.6,-8.3,70,30.55,10.0,ESE,10.4,-,N/A,,Clear,120,2013-01-24 16:06:00
10:24 AM,-0.0,-8.0,69,30.53,10.0,ESE,11.5,-,N/A,,Scattered Clouds,120,2013-01-24 16:24:00
10:45 AM,1.4,-7.6,66,30.54,10.0,ESE,10.4,-,N/A,,Scattered Clouds,120,2013-01-24 16:45:00
11:05 AM,1.4,-5.8,72,30.53,10.0,ESE,11.5,-,N/A,,Clear,120,2013-01-24 17:05:00
11:16 AM,1.6,-6.2,70,30.53,10.0,SE,9.2,-,N/A,,Clear,130,2013-01-24 17:16:00
11:28 AM,2.1,-5.6,70,30.52,10.0,SE,9.2,-,N/A,,Clear,130,2013-01-24 17:28:00
11:48 AM,2.8,-5.1,70,30.51,10.0,ESE,11.5,-,N/A,,Scattered Clouds,120,2013-01-24 17:48:00
12:08 PM,3.4,-4.5,70,30.50,10.0,SE,12.7,-,N/A,,Mostly Cloudy,130,2013-01-24 18:08:00
12:28 PM,4.1,-4.0,69,30.47,10.0,SE,12.7,-,N/A,,Scattered Clouds,130,2013-01-24 18:28:00
12:48 PM,5.4,-2.6,70,30.45,10.0,SE,12.7,-,N/A,,Scattered Clouds,130,2013-01-24 18:48:00
1:08 PM,6.6,-1.5,69,30.43,10.0,ESE,11.5,-,N/A,,Mostly Cloudy,120,2013-01-24 19:08:00
1:28 PM,6.6,-1.8,68,30.44,10.0,SE,11.5,-,N/A,,Mostly Cloudy,130,2013-01-24 19:28:00
1:48 PM,8.1,-0.0,70,30.42,10.0,SE,13.8,17.3,N/A,,Mostly Cloudy,130,2013-01-24 19:48:00
2:09 PM,9.1,0.7,69,30.41,10.0,SE,11.5,-,N/A,,Scattered Clouds,130,2013-01-24 20:09:00
2:28 PM,9.1,0.5,68,30.37,10.0,SE,13.8,-,N/A,,Scattered Clouds,130,2013-01-24 20:28:00
2:48 PM,9.1,0.5,68,30.36,10.0,SE,13.8,-,N/A,,Mostly Cloudy,140,2013-01-24 20:48:00
3:08 PM,9.1,0.1,67,30.35,10.0,SE,12.7,-,N/A,,Overcast,130,2013-01-24 21:08:00
3:28 PM,10.4,1.0,66,30.34,10.0,SE,15.0,18.4,N/A,,Scattered Clouds,130,2013-01-24 21:28:00
3:48 PM,10.9,1.6,66,30.33,10.0,SE,11.5,18.4,N/A,,Clear,130,2013-01-24 21:48:00
4:07 PM,11.7,1.9,65,30.31,10.0,SE,15.0,19.6,N/A,,Clear,130,2013-01-24 22:07:00
4:27 PM,11.7,2.1,66,30.29,10.0,ESE,16.1,-,N/A,,Clear,120,2013-01-24 22:27:00
4:48 PM,11.7,1.4,63,30.29,10.0,SE,11.5,-,N/A,,Clear,130,2013-01-24 22:48:00
5:08 PM,11.7,1.6,64,30.29,10.0,SE,12.7,-,N/A,,Scattered Clouds,130,2013-01-24 23:08:00
5:28 PM,11.7,1.9,65,30.28,10.0,SE,11.5,16.1,N/A,,Clear,130,2013-01-24 23:28:00
5:48 PM,11.7,1.4,63,30.28,10.0,SE,12.7,-,N/A,,Scattered Clouds,130,2013-01-24 23:48:00
6:09 PM,11.7,1.4,63,30.25,10.0,SE,12.7,-,N/A,,Scattered Clouds,130,2013-01-25 00:09:00
6:29 PM,11.8,1.9,65,30.24,10.0,SE,11.5,-,N/A,,Mostly Cloudy,140,2013-01-25 00:29:00
6:48 PM,12.0,2.3,65,30.22,10.0,SE,11.5,-,N/A,,Overcast,140,2013-01-25 00:48:00
7:08 PM,12.9,3.4,66,30.19,10.0,SE,13.8,-,N/A,,Overcast,140,2013-01-25 01:08:00
7:28 PM,14.0,3.9,64,30.18,10.0,SE,15.0,19.6,N/A,,Overcast,140,2013-01-25 01:28:00
7:48 PM,14.0,3.4,63,30.17,10.0,SE,15.0,-,N/A,,Overcast,140,2013-01-25 01:48:00
8:09 PM,14.0,3.6,63,30.16,10.0,SE,12.7,-,N/A,,Overcast,140,2013-01-25 02:09:00
8:28 PM,14.0,3.2,62,30.15,10.0,SE,12.7,24.2,N/A,,Overcast,140,2013-01-25 02:28:00
8:37 PM,14.0,3.4,63,30.15,10.0,SSE,11.5,17.3,N/A,,Overcast,150,2013-01-25 02:37:00
9:10 PM,14.0,3.2,62,30.15,10.0,SSE,8.1,-,N/A,,Overcast,160,2013-01-25 03:10:00
9:30 PM,14.0,3.2,62,30.17,10.0,South,11.5,16.1,N/A,,Overcast,170,2013-01-25 03:30:00
9:45 PM,14.0,3.2,62,30.18,10.0,South,8.1,16.1,N/A,,Overcast,170,2013-01-25 03:45:00
10:05 PM,14.0,3.2,62,30.18,10.0,South,8.1,-,N/A,,Overcast,170,2013-01-25 04:05:00
10:25 PM,14.0,5.0,67,30.15,10.0,South,9.2,-,N/A,,Overcast,170,2013-01-25 04:25:00
10:45 PM,14.0,5.0,67,30.14,10.0,South,9.2,-,N/A,,Overcast,180,2013-01-25 04:45:00
11:10 PM,15.8,5.0,62,30.14,10.0,South,10.4,16.1,N/A,,Overcast,190,2013-01-25 05:10:00
11:25 PM,15.8,5.0,62,30.12,10.0,South,12.7,18.4,N/A,,Overcast,180,2013-01-25 05:25:00
11:45 PM,14.0,6.8,73,30.09,10.0,South,13.8,-,N/A,,Overcast,170,2013-01-25 05:45:00